TimeMST,TemperatureF,Dew PointF,Humidity,Sea Level PressureIn,VisibilityMPH,Wind Direction,Wind SpeedMPH,Gust SpeedMPH,PrecipitationIn,Events,Conditions,WindDirDegrees,DateUTC
12:53 AM,9.0,1.9,73,29.81,10.0,Calm,Calm,-,N/A,,Clear,0,2013-02-20 07:53:00
1:53 AM,10.9,3.0,70,29.77,10.0,Calm,Calm,-,N/A,,Clear,0,2013-02-20 08:53:00
2:53 AM,7.0,1.0,77,29.78,10.0,Calm,Calm,-,N/A,,Clear,0,2013-02-20 09:53:00
3:53 AM,9.0,1.9,73,29.75,10.0,Calm,Calm,-,N/A,,Clear,0,2013-02-20 10:53:00
4:53 AM,7.0,-0.0,73,29.78,10.0,Calm,Calm,-,N/A,,Mostly Cloudy,0,2013-02-20 11:53:00
5:53 AM,8.6,3.2,79,29.64,10.0,Calm,Calm,-,N/A,,Overcast,0,2013-02-20 12:53:00
6:53 AM,10.9,3.9,73,29.79,10.0,Calm,Calm,-,N/A,,Partly Cloudy,0,2013-02-20 13:53:00
7:53 AM,10.9,3.9,73,29.81,10.0,Calm,Calm,-,N/A,,Clear,0,2013-02-20 14:53:00
8:53 AM,14.0,7.0,74,29.81,10.0,SSW,3.5,-,N/A,,Clear,210,2013-02-20 15:53:00
9:53 AM,18.0,9.0,68,29.79,10.0,SW,5.8,-,N/A,,Clear,220,2013-02-20 16:53:00
10:53 AM,21.9,10.9,63,29.78,10.0,SW,3.5,-,N/A,,Clear,230,2013-02-20 17:53:00
11:53 AM,-9999,-9999,N/A,29.60,-9999.0,North,-9999.0,-,N/A,,Partly Cloudy,0,2013-02-20 18:53:00
12:53 PM,28.9,14.0,54,29.72,10.0,Calm,Calm,-,N/A,,Clear,0,2013-02-20 19:53:00
1:53 PM,32.0,15.1,50,29.67,10.0,Calm,Calm,-,N/A,,Clear,0,2013-02-20 20:53:00
2:53 PM,33.1,16.0,50,29.67,10.0,SSW,5.8,-,N/A,,Clear,210,2013-02-20 21:53:00
3:53 PM,32.0,19.0,59,29.67,10.0,West,3.5,-,N/A,,Clear,270,2013-02-20 22:53:00
4:53 PM,33.1,17.1,52,29.69,10.0,Calm,Calm,-,N/A,,Partly Cloudy,0,2013-02-20 23:53:00
5:53 PM,30.2,14.0,51,29.55,10.0,West,4.6,-,N/A,,Mostly Cloudy,270,2013-02-21 00:53:00
6:53 PM,27.0,15.1,61,29.71,10.0,SSW,9.2,-,N/A,,Clear,200,2013-02-21 01:53:00
7:53 PM,24.1,12.9,62,29.71,10.0,SW,12.7,-,N/A,,Clear,220,2013-02-21 02:53:00
8:53 PM,21.2,12.2,68,29.56,10.0,West,3.5,-,N/A,,Overcast,270,2013-02-21 03:53:00
9:53 PM,23.0,12.9,65,29.71,10.0,WSW,6.9,-,N/A,,Partly Cloudy,240,2013-02-21 04:53:00
10:53 PM,19.9,12.0,71,29.72,10.0,Calm,Calm,-,N/A,,Overcast,0,2013-02-21 05:53:00
11:53 PM,21.0,14.0,74,29.59,10.0,West,5.8,-,N/A,,Overcast,280,2013-02-21 06:53:00